Regional Weather Roundup
Issued by NWS Charleston, WV

Home | Current Version | Previous Version | Graphics & Text | Print | Product List | Glossary On
Versions: 1 2 3 4 5 6 7 8 9 10 11 12 13 14 15 16 17 18 19 20 21 22 23 24 25 26 27 28 29 30 31 32 33 34 35 36 37 38 39 40 41 42 43 44 45 46 47 48 49 50
000
ASUS41 KRLX 181710
RWRRLX
West Virginia Regional Weather Roundup
National Weather Service Charleston WV
100 PM EDT WED OCT 18 2017

Note: "fair" indicates few or no clouds below 12,000 feet with no
significant weather and/or obstructions to visibility.

WVZ003-181800-
Northern Panhandle of West Virginia

CITY           SKY/WX    TMP DP  RH WIND       PRES   REMARKS
WHEELING       SUNNY     64  40  41 VRB5      30.33F
$$

WVZ009-181800-
Northwest West Virginia

CITY           SKY/WX    TMP DP  RH WIND       PRES   REMARKS
PARKERSBURG    SUNNY     65  42  43 CALM      30.36F
$$

WVZ006-181800-
Western West Virginia

CITY           SKY/WX    TMP DP  RH WIND       PRES   REMARKS
HUNTINGTON     SUNNY     65  44  46 VRB5      30.33F
$$

WVZ015-181800-
West Central West Virginia

CITY           SKY/WX    TMP DP  RH WIND       PRES   REMARKS
CHARLESTON     MOSUNNY   66  42  41 CALM      30.33F
$$

WVZ022-031-181800-
North Central West Virginia

CITY           SKY/WX    TMP DP  RH WIND       PRES   REMARKS
CLARKSBURG     SUNNY     66  40  38 MISG      30.33F
MORGANTOWN     SUNNY     67  38  34 CALM      30.34F
$$

WVZ025-035-042-045-181800-
Southern West Virginia

CITY           SKY/WX    TMP DP  RH WIND       PRES   REMARKS
BECKLEY        SUNNY     63  35  35 SE10      30.36F
LOGAN            N/A     64  41  42 CALM      30.34F
BLUEFIELD      SUNNY     60  33  36 SE6       30.38F
LEWISBURG      SUNNY     63  39  41 SE7       30.38F
$$

WVZ047-181800-
Northern Mountains of West Virginia

CITY           SKY/WX    TMP DP  RH WIND       PRES   REMARKS
ELKINS         SUNNY     64  31  28 CALM      30.34F
$$

WVZ052-181800-
Eastern Panhandle of West Virginia

CITY           SKY/WX    TMP DP  RH WIND       PRES   REMARKS
MARTINSBURG    SUNNY     65  43  44 S6        30.37F
PETERSBURG     SUNNY     65  39  38 CALM      30.36F
$$



USA.gov is the U.S. government's official web portal to all federal, state and local government web resources and services.